ONEWEB-0012, 44057

Orbit data source: Space-Track

ONEWEB-0012, 44057 is a payload satellite owned by One Web (UK) in LEO that was launched on Wed, 27 Feb 2019 UTC via a SOYUZ-ST-B launch vehicle from the French Guiana (FRGUI). Payload-class satellites include a variety of spacecraft equipped with specific instruments for various scientific and technological missions. These include communications satellites like Starlink; space stations such as the ISS; scientific satellites like the Hubble; Earth observation satellites from companies like Planet Labs, Umbra, and HawkEye 360; GPS; miniature CubeSats for education and research; and military/defense satellites.

Loading next visibility...
Identifier
44057, 2019-010A
Orbit
LEO
Country
Flag of UKUK
Related business
Manufacturer
Airbus/Toulouse
Mission
Operational Commercial Communications
Bus & Motor
ARROW, Unknown motor
Mass
148 kg wet, ~140 kg dry
Launch date (UTC)
2019-02-27 (7 years ago)
Launch vehicle
SOYUZ-ST-B
Launch site
French Guiana (FRGUI)
Object type
Payload
Rocket body
Debris
Shape & HBR
Trap Box + 2 Pan, 6.7 m
Radar Cross Section
3.464 m², Large (>1 m²)

Expand to show TLE details & history
Last TLE update: 11 hours ago

TLE from 11 hours ago
0 ONEWEB-0012
1 44057U 19010A   26038.14637724  .00000051  00000-0  99771-4 0  9997
2 44057  87.9000 254.6708 0001451  70.2770 289.8518 13.16594883334450
Epoch: 2026-02-07T03:30Z
TLE epoch observation values (Epoch: 2026-02-07T03:30:46.993Z)
Latitude
0.00004°
Longitude
64.70091°
Altitude
1,200.278 km
Speed
7.254 km/s
True Right ascension
16h 58m 40s
True Declination
0° 00' 00"
Sunlit
Object was in daylight at epoch
Visualization orbit readout
Latitude
Unknown
Longitude
Unknown
Altitude
Unknown
Speed
Unknown
Apparent Right ascension
Unknown
Apparent Declination
Unknown
Sunlit
N/A
Visualization observer readout
Local Sidereal Time
16:22:55
Azimuth
Unknown
Elevation
Unknown
Doppler factor
Unknown
Orbital elements
Apogee altitude
1,195.964 km
Perigee altitude
1,193.766 km
Semi-major axis
7,573.002 km
Eccentricity
0.00015
Inclination
87.9°
RAAN
254.6708°
Arg. of periapsis
70.277°
True anomaly
289.83616°
Mean anomaly
289.8518°
Eccentric anomaly
289.84398°
Mean motion
3.29337 °/min
Orbital period
109.31 mins
BSTAR
0.000099771
Loading maneuver chart data...
Computing Atmospheric mass density...
Loading historical data...
Loading historical data...
Loading historical data...
Loading historical data...
Loading historical data...
Loading historical data...
Loading historical data...
Other satellites on launch #10 in the year 2019 (2019-02-27 UTC)

Documentation

Showing up to 5 results
|